Reflectivity
-20 -20 -20 -20 -20 -20 -20 -20 -20 -20 -20 -20 -20 -20 -20 -20 -20 -20 -20 -20 -20 -20 -20 -20 -20 -20 -20 -20 -20 -20 -20 -20 -20 -20 4 -9 -12 -20 -20 -20 11 -9 -20
-20 -20 -20 -20 -20 -20 -20 -20 -20 -20 -20 -20 -20 -20 -20 -20 -20 -20 -20 -20 -20 -20 -20 -20 -20 -20 -20 -20 -20 -20 -20 -20 -20 -20 -20 -9 -19 -10 -20 -13 -20 -20 -20
-20 -20 -20 -20 -20 -20 -20 -20 -20 -20 -20 -20 -20 -20 -20 -20 -20 -20 -20 -20 -20 -20 -20 -20 -20 -20 -20 -20 -20 -20 -20 -20 -19 -20 -18 -20 -20 -17 -1 3 -20 -20 -20
-20 -20 -20 -20 -20 -20 -20 -20 -20 -20 -20 -20 -20 -20 -20 -20 -20 -20 -20 -20 -20 -20 -20 -20 -20 -20 -20 -20 -20 -2 -1 -16 -20 -4 -20 4 3 5 -15 -20 -20 -20 0
-20 -20 -20 -20 -20 -20 -20 -20 -20 -20 -20 -20 -20 -20 -20 -20 -20 -20 -20 -20 -20 -20 -20 -20 -20 -20 -20 -20 -20 -3 -0 1 10 8 10 9 -7 -20 -20 -4 11 1 -5
-20 -20 -20 -20 -20 -20 -20 -20 -20 -20 -20 -20 -20 -20 -20 -20 -20 -20 -20 -20 -20 -20 -20 -20 -20 -20 -20 -20 -20 -20 -20 -20 -14 -20 -19 -20 -10 -4 -20 -4 -9 1 -1
-20 -20 -20 -20 -20 -20 -20 -20 -20 -20 -20 -20 -20 -20 -20 -20 -20 -20 -20 -20 -20 -20 -20 -20 -20 -20 -20 -20 -20 -20 -20 -20 -20 -20 -20 -20 -20 -14 -19 3 -20 9 11
-20 -20 -20 -20 -20 -20 -20 -20 -20 -20 -20 -20 -20 -20 -20 -20 -20 -20 -20 -20 -20 -20 -20 -20 -20 -20 -20 -20 -20 -20 -20 -20 -20 -20 -20 -20 -20 -20 -20 -20 -4 7 3
-20 -20 -20 -20 -20 -20 -20 -20 -20 -20 -20 -20 -20 -20 -20 -20 -20 -20 -20 -20 -20 -20 -20 -20 -20 -20 -20 -20 -20 -20 -20 -20 -20 -20 -20 -20 -20 -20 -20 -20 -16 4 -8
-20 -20 -20 -20 -20 -20 -20 -20 -20 -20 -20 -20 -20 -20 -20 -20 -20 -20 -20 -20 -20 -20 -20 -20 -20 -20 -20 -20 -20 -20 -20 -20 -20 -20 -20 -20 -20 -20 -20 -20 -15 -20 -20
-20 -20 -20 -20 -20 -20 -20 -20 -20 -20 -20 -20 -20 -20 -20 -20 -20 -20 -20 -20 -20 -20 -20 -20 -20 -20 -20 -20 -20 -20 -20 -20 -20 -20 -20 -20 -20 -20 -20 -20 -20 -20 -20
-20 -20 -20 -20 -20 -20 -20 -20 -20 -20 -20 -20 -20 -20 -20 -20 -20 -20 -20 -20 -20 -20 -20 -20 -20 -20 -20 -20 -20 -20 -20 -20 -20 -20 -20 -20 -20 -20 -20 -20 -20 -20 -20
-20 -20 -20 -20 -20 -20 -20 -20 -20 -20 -20 -20 -20 -20 -20 -20 -20 -20 -20 -20 -20 -20 -20 -20 -20 -20 -20 -20 -20 -20 -20 -20 -20 -20 -20 -20 -20 -20 -20 -20 -20 -20 -20
-20 -20 -20 -20 -20 -20 -20 -20 -20 -15 -10 -20 -20 -20 -11 -20 -20 -20 -20 -20 -20 -20 -20 -20 -20 -20 -20 -20 -20 -20 -20 -20 -20 -20 -20 -20 -20 -20 -20 -20 -20 -20 -20
-20 -20 -20 -20 -20 -20 -20 -20 -20 -20 -7 -20 -20 -4 7 -19 -20 -20 -20 -20 -20 -20 -20 -20 -20 -20 -20 -20 -20 -20 -20 -20 -20 -20 -20 -20 -20 -20 -20 -20 -20 -20 -20
-20 -19 -20 -20 -4 -6 -15 -10 -20 -20 -12 -11 -6 -8 14 7 -18 -20 -20 -20 -20 -20 -20 -20 -20 -20 -20 -20 -20 -20 -20 -20 -20 -20 -20 -20 -20 -20 -20 -20 -20 -20 -20
-1 -7 -20 -19 -7 -2 3 1 -0 14 24 11 13 8 9 2 -20 -20 -20 -20 -20 -20 -20 -20 -20 -20 -20 -20 -20 -20 -20 -20 -20 -20 -20 -20 -20 -20 -20 -20 -20 -20 -20
-20 -20 -1 -20 -20 -20 1 14 31 22 -11 3 7 2 -13 -20 -20 -20 -20 -20 -20 -20 -20 -20 -20 -20 -20 -20 -20 -20 -20 -20 -20 -20 -20 -20 -20 -20 -20 -20 -20 -20 -20
18 7 15 10 23 30 21 28 7 -20 -16 -9 -14 -20 -20 -20 -20 -20 -20 -20 -20 -20 -20 -20 -20 -20 -20 -20 -20 -20 -20 -20 -20 -20 -20 -20 -20 -20 -20 -20 -20 -20 -20
22 30 33 30 30 24 17 5 -13 -2 -8 -20 -20 -20 -20 -20 -20 -20 -20 -20 -20 -20 -20 -20 -20 -20 -20 -20 -20 -20 -20 -20 -20 -20 -20 -20 -20 -20 -20 -20 -20 -20 -20
33 34 27 23 22 13 5 13 15 14 8 -19 -20 -20 -20 -20 -20 -20 -20 -20 -20 -20 -20 -20 -20 -20 -20 -20 -20 -20 -20 -20 -20 -20 -20 -20 -20 -20 -20 -20 -20 -20 -20
33 34 23 28 26 21 28 26 18 13 -17 -18 4 3 -1 -5 -20 -20 -20 -20 -20 -20 -20 -20 -20 -20 -20 -20 -20 -20 -20 -20 -4 -20 4 -20 -20 -20 -20 -20 -20 -20 -20
28 24 23 32 32 31 27 26 18 13 8 -8 -20 -20 -20 -20 -20 -20 -20 -20 -20 -20 -20 -20 -20 -20 -20 -20 -20 -15 1 8 9 -7 2 3 -20 -20 -20 -20 -20 -20 -20
32 36 34 35 30 31 30 19 14 6 -7 -14 -10 -13 -20 -20 -20 -20 -20 -20 -20 -20 -20 -20 -20 -20 -20 -1 8 10 9 16 9 -11 5 10 1 -20 -20 -20 -20 -20 -20
35 35 32 29 32 27 19 9 3 3 3 -1 -20 -20 -20 -20 -20 -20 -20 -20 -20 -20 -20 -20 -20 -20 -20 -20 -20 0 0 9 5 -1 -19 3 0 -3 -15 -20 -20 -20 -20
33 30 28 31 25 13 -12 -19 -3 -14 -20 -20 -20 -20 -20 -20 -20 -20 -20 -20 -20 -20 -20 -19 -20 -20 -20 -20 -20 -5 4 11 8 4 -20 9 10 10 9 -20 -20 -20 -20
Wind_Speed
8 8 8 7 6 7 7 7 8 9 9 9 9 9 9 8 8 6 6 12 10 12 10 11 11 12 11 11 11 11 11 10 10 10 10 11 12 12 13 12 12 11 12
8 8 8 8 7 7 7 7 8 8 8 9 9 9 9 8 8 8 7 8 13 10 11 11 11 11 11 11 10 11 10 10 9 9 9 11 11 11 12 11 10 12 13
10 9 8 7 7 7 8 7 7 7 7 7 10 8 7 8 7 8 6 7 9 12 12 11 11 10 10 10 11 11 11 11 10 9 9 9 10 10 12 13 12 11 11
11 9 8 8 8 7 7 7 8 8 8 7 7 7 6 6 7 7 6 6 5 5 10 12 12 12 12 12 12 12 12 11 11 9 9 9 9 10 11 10 12 13 13
10 8 7 7 9 7 6 6 7 8 8 8 7 6 6 6 6 6 8 8 7 5 5 12 14 15 15 14 14 13 12 12 12 13 12 11 12 14 14 13 12 13 15
10 8 8 8 7 7 7 6 8 7 8 8 8 7 5 5 5 6 6 6 6 6 6 6 5 8 13 14 14 14 14 14 14 14 15 14 14 14 14 15 15 17 17
10 8 7 8 7 7 8 8 8 10 8 9 8 8 6 5 5 5 4 5 5 6 6 5 4 4 5 11 14 15 15 14 14 14 13 14 15 16 17 16 16 17 18
11 9 9 8 8 7 9 10 10 9 8 8 6 6 6 4 4 4 4 4 5 4 4 5 6 6 5 5 8 13 16 15 15 15 15 16 16 16 16 15 16 17 17
11 10 10 9 9 8 8 9 10 11 8 5 6 1 4 4 8 5 5 3 3 3 3 4 5 6 6 6 7 9 14 14 15 15 15 15 15 16 17 16 16 18 19
11 11 10 9 9 7 8 7 7 7 7 7 5 2 2 4 5 5 5 5 2 3 2 3 4 5 6 5 6 10 14 15 15 16 16 16 16 17 18 20 20 21 20
10 11 10 10 9 7 8 8 7 7 5 7 4 4 4 3 2 2 6 5 4 2 1 3 3 3 4 5 5 7 12 14 16 17 17 17 17 17 18 18 19 19 19
8 10 10 9 8 8 8 7 8 8 6 6 5 5 3 2 3 1 2 4 1 3 1 1 0 2 2 5 5 9 10 13 14 16 17 17 17 16 17 18 18 19 19
10 11 11 10 8 9 9 9 9 8 8 7 7 6 5 6 5 4 3 2 1 1 1 1 1 1 3 6 5 9 8 11 14 16 17 17 17 17 18 18 20 20 20
11 15 12 12 12 11 10 10 7 7 8 8 8 7 6 6 5 4 2 1 1 1 2 1 1 2 4 6 5 9 6 6 12 13 14 16 16 17 18 19 20 20 20
12 15 15 14 13 12 12 10 7 9 8 8 8 7 7 5 5 4 3 1 2 2 4 2 3 0 6 6 5 8 8 6 11 11 13 14 15 16 17 17 18 19 20
17 16 15 13 13 12 12 11 7 8 9 6 5 7 6 5 5 3 3 2 1 1 4 1 4 8 8 7 7 8 8 10 11 13 15 17 16 16 17 16 17 18 20
15 16 17 16 13 13 10 9 8 10 10 8 6 6 6 5 3 3 2 2 2 2 5 6 5 7 10 10 10 9 9 9 9 14 17 19 20 20 18 17 19 19 19
12 13 14 13 11 11 10 11 12 10 10 9 7 6 6 4 4 2 2 2 3 3 5 9 7 6 8 10 10 11 8 8 9 12 15 18 17 17 17 20 21 20 19
14 12 12 11 11 9 12 11 11 10 9 8 7 7 6 4 4 3 2 3 3 4 5 6 8 6 7 8 9 10 10 9 8 11 16 16 16 16 18 20 19 18 17
12 11 12 12 11 11 12 11 10 10 9 7 6 4 4 3 2 3 3 4 5 5 6 6 7 7 7 8 8 8 8 8 9 9 13 12 15 15 18 19 17 16 16
13 12 12 11 9 9 8 9 8 9 9 8 5 4 3 2 1 3 4 4 5 6 6 7 7 8 8 8 9 9 9 9 9 9 8 8 10 11 10 15 14 14 17
15 14 10 10 8 6 13 13 10 8 6 6 5 4 3 3 4 2 2 5 6 7 7 7 8 9 11 9 9 9 9 10 9 7 9 10 10 10 10 10 16 18 20
15 13 10 10 9 8 15 13 11 6 5 4 4 3 3 3 2 3 4 6 8 7 8 8 9 9 10 10 11 11 10 9 9 9 11 12 10 11 10 10 18 21 21
15 13 11 10 8 7 14 13 11 6 4 4 4 4 4 3 2 5 5 6 7 7 7 7 10 10 10 11 12 9 10 11 9 9 11 11 10 11 11 10 20 18 17
13 12 11 10 10 10 12 13 9 6 5 4 4 4 3 4 3 6 6 6 7 8 7 10 12 15 15 16 14 9 9 9 10 10 10 10 10 10 10 11 9 14 20
12 10 11 10 13 11 13 13 8 4 5 4 4 4 5 5 5 6 7 7 8 8 8 9 9 9 10 9 11 8 8 8 9 9 8 7 8 9 7 7 8 10 10
Wind_Direction
163 155 152 156 151 153 157 148 148 148 142 136 132 128 121 118 114 106 99 46 56 66 65 70 61 53 45 51 51 47 42 42 36 32 32 29 21 11 11 0 18 17 20
163 158 157 152 151 156 154 154 150 150 143 148 136 131 125 117 121 114 108 89 63 60 61 62 54 45 38 44 51 51 45 39 37 33 24 23 27 6 9 7 358 3 3
169 158 158 158 151 154 148 145 142 144 146 143 141 137 132 123 120 121 116 115 105 61 57 55 48 44 46 47 54 48 44 38 31 35 22 16 12 5 1 358 353 345 341
169 162 161 157 154 151 154 157 155 150 147 149 144 131 127 122 121 119 116 104 87 88 73 49 49 48 45 41 42 41 40 34 30 27 23 9 350 350 349 346 339 334 331
169 167 160 155 157 155 162 159 157 154 149 141 134 129 127 121 115 120 112 99 85 78 85 83 64 51 49 44 38 32 28 23 15 13 14 7 3 355 352 348 337 330 321
171 168 155 157 158 158 152 159 155 156 148 137 126 115 109 110 120 119 116 103 89 85 74 63 81 76 52 46 41 34 25 17 10 5 2 357 352 350 340 340 339 339 338
167 169 156 155 158 165 158 161 150 145 143 136 126 114 103 108 119 122 114 108 95 76 79 73 57 48 68 54 37 28 20 10 2 358 352 349 345 340 337 330 339 338 344
167 170 164 162 165 155 156 155 157 150 146 168 158 136 149 147 151 140 123 107 108 74 80 70 59 56 47 44 34 31 15 5 358 354 351 344 337 331 326 328 344 340 337
169 174 172 167 165 168 164 165 165 170 159 174 204 242 162 188 154 173 170 141 103 84 88 89 64 49 39 42 24 20 12 2 356 351 345 339 336 332 331 341 332 331 333
172 172 171 169 165 173 167 167 169 167 171 162 149 102 77 114 190 171 200 185 148 105 98 106 78 59 40 31 31 31 4 357 354 350 347 342 339 340 342 339 335 331 327
171 170 169 167 160 163 159 161 160 163 160 157 159 144 106 108 83 179 163 169 174 139 103 45 79 52 44 27 12 22 2 356 354 353 348 347 344 344 339 334 328 324 322
164 166 164 163 155 146 144 138 135 138 138 125 132 131 144 129 104 148 136 143 178 158 317 6 120 36 33 2 14 353 359 355 350 350 343 340 342 337 331 328 325 323 325
164 165 163 154 150 136 130 126 118 118 117 117 115 112 103 93 92 77 64 101 230 199 210 198 348 352 357 345 345 355 339 348 343 341 336 334 333 330 327 324 322 322 322
156 157 157 149 142 137 130 124 110 106 108 101 100 99 99 88 82 70 83 311 236 232 265 306 248 238 338 333 323 316 312 323 327 330 330 332 330 327 325 324 323 321 316
148 156 151 146 141 137 129 120 114 113 112 109 104 109 105 96 88 89 88 39 14 321 308 146 311 12 332 312 337 315 314 345 307 319 324 322 322 320 321 319 315 315 315
146 147 143 140 138 131 129 121 115 116 110 102 119 115 103 101 102 113 117 165 153 265 283 309 299 323 319 316 317 308 311 295 312 317 324 328 326 321 320 322 320 316 313
147 146 143 139 138 133 124 116 112 116 121 115 114 120 115 114 137 138 168 182 192 224 270 294 296 311 311 315 317 317 314 305 309 315 317 319 321 319 320 322 324 321 317
137 141 135 124 125 128 130 135 140 137 135 136 137 131 133 151 153 168 208 212 260 240 272 285 298 302 307 312 311 305 302 301 298 300 303 307 309 304 310 319 319 315 316
141 129 122 126 124 136 150 137 135 138 137 149 150 156 157 166 178 196 240 272 280 272 257 270 292 302 298 299 306 305 303 301 297 300 300 306 308 307 305 310 309 309 308
128 130 133 132 143 150 127 128 136 139 140 149 151 149 151 183 229 259 290 288 280 275 285 283 296 303 301 299 288 293 304 305 306 312 306 308 299 297 300 306 304 304 303
123 125 126 122 130 121 120 126 136 146 150 145 148 150 160 116 325 287 271 279 284 282 298 297 295 296 299 302 308 313 307 311 308 300 303 304 309 303 305 310 303 300 307
121 116 117 110 98 92 133 145 148 141 143 149 149 148 149 185 197 219 280 281 290 291 291 289 288 282 293 303 304 305 304 301 303 294 299 297 293 297 303 305 311 303 306
118 110 104 109 123 140 159 157 140 136 147 148 148 158 191 184 225 279 282 282 274 278 281 293 290 292 302 303 301 300 295 292 290 295 314 300 302 294 303 305 306 306 310
124 125 130 142 138 154 160 145 137 138 144 156 171 199 218 234 269 301 293 292 291 293 296 301 295 297 300 304 295 288 280 280 283 279 281 287 296 296 302 305 305 309 307
125 134 141 151 157 163 158 155 150 152 163 179 186 197 216 251 275 282 288 280 295 295 299 288 291 298 298 297 297 302 292 297 297 301 308 298 296 288 303 301 293 302 310
133 143 157 170 164 151 161 162 159 162 183 188 193 194 210 274 291 298 291 300 297 304 305 305 304 298 299 300 303 289 304 302 301 298 295 303 303 302 286 285 298 301 311